Погода в Зеленоборске

Россия / Республика Коми     64°28′46″N   55°17′44″E
темп.,
°C
ветер,
м/с
пор.,
м/с
влажн.,
%
обл.,
%
осадки,
мм/ч
давл.,
гПа
погр.,
м
15 августа, пн
пн1500:00+10ююз2466100 0.0 1021113
03:00+10юз31063100 0.0 1020368
06:00+10зюз41179100 0.1 1019491
09:00+16з475851 0.3 10181059
12:00+16зсз4856100 0.3 10191631
15:00+19сз58328 0.3 10192552
18:00+16с374459 0.0 1020392
21:00+9ссз22725 0.0 102229
16 августа, вт
вт1600:00+7сз23795 0.0 102351
03:00+5сз26935 0.0 1025130
06:00+9ссз38725 0.0 1025601
09:00+13ссз46495 0.0 10251244
12:00+16ссз463810 0.0 10251622
15:00+16ссз46365 0.0 10251773
18:00+14с25475 0.0 1025215
21:00+9с226514 0.0 102618
17 августа, ср
ср1700:00+8всв127267 0.0 102664
03:00+8в1273100 0.0 102665
06:00+9вюв126787 0.0 1026122
09:00+15юв1050100 0.0 1026616
12:00+17св124496 0.0 10251122
15:00+13в3561100 0.0 1025205
18:00+13вюв256275 0.0 1025208
21:00+9вюв237594 0.0 102549
18 августа, чт
чт1800:00+8ююв227746 0.0 102532
03:00+9ююв227260 0.0 102543
06:00+13юв236017 0.0 1026175
09:00+18ююв234555 0.0 1025586
12:00+21ю2243100 0.0 1025904
15:00+23ю2245100 0.0 10241083
18:00+19ююв236443 0.0 102459
21:00+14ююз238170 0.0 102444
19 августа, пт
пт1900:00+14ююз258736 0.0 102483
03:00+13ююз24955 0.1 102479
06:00+17юз247916 0.0 1024168
09:00+24з245188 0.0 1024624
12:00+28зсз463851 0.0 10232240
15:00+23юз265477 0.0 1022128
18:00+23з2455100 0.0 102187
21:00+19зсз31174100 0.0 1023493